Regional Weather Roundup
Issued by NWS

Home | Current Version | Previous Version | Text Only | Print | Product List | Glossary Off
Versions: 1 2 3 4 5 6 7 8 9 10 11 12 13 14 15 16 17 18 19 20 21 22 23 24 25 26 27 28 29 30 31 32 33 34 35 36 37 38 39 40 41 42 43 44 45 46 47 48 49 50

000
ASUS45 KBOI 281510
RWRID
WEATHER ROUNDUP FOR IDAHO
NATIONAL WEATHER SERVICE BOISE ID
800 AM MST FRI NOV 28 2014

NOTE: "FAIR" INDICATES FEW OR NO CLOUDS BELOW 12000 FEET
WITH NO SIGNIFICANT WEATHER AND/OR OBSTRUCTIONS TO VISIBILITY

IDZ012-014-281600-
SOUTHWEST IDAHO


CITY           SKY/WX    TMP DP  RH WIND       PRES   REMARKS
BOISE          CLOUDY    46  36  68 SE9       29.83F
CALDWELL       NOT AVBL
MOUNTAIN HOME  CLOUDY    42  41  99 E14       29.86F
$$

IDZ016-017-281600-
SOUTHCENTRAL IDAHO


CITY           SKY/WX    TMP DP  RH WIND       PRES   REMARKS
BURLEY         CLOUDY    52  22  30 SW14      29.90S
JEROME         CLOUDY    43  27  53 SE7       29.91F
TWIN FALLS     CLOUDY    53  24  32 S14       29.89F
$$

IDZ019>023-281600-
SOUTHEAST IDAHO


CITY           SKY/WX    TMP DP  RH WIND       PRES   REMARKS
IDAHO FALLS    MOCLDY    37  27  67 SW9       29.90S WCI  30
POCATELLO      CLEAR     41  27  57 VRB5      29.92S
REXBURG        MOCLDY    42  24  49 S8        29.88F
$$

IDZ006-010-011-018-031-032-281600-
CENTRAL IDAHO MOUNTAINS


CITY           SKY/WX    TMP DP  RH WIND       PRES   REMARKS
MCCALL         CLOUDY    36  34  92 NE5       29.82F WCI  32
HAILEY         MOCLDY    36  30  80 W7        29.95F WCI  30
STANLEY          N/A     41  22  46 SE8       29.94S
SALMON         CLOUDY    45  30  57 S3        29.78F
CHALLIS        MOCLDY    48  18  30 SW8G21    29.85R
$$

IDZ002-004-006-007-026-281600-
NORTHERN IDAHO


CITY           SKY/WX    TMP DP  RH WIND       PRES   REMARKS
LEWISTON       CLOUDY    56  43  61 S17       29.64F
LOWELL           N/A     42  40  92 NW6       29.74F
COEUR D`ALENE  CLOUDY    50  41  71 S6        29.55F
MULLAN PASS    LGT RAIN  35  35 100 SW14G31   29.58F FOG     WCI  26
$$


USA.gov is the U.S. government's official web portal to all federal, state and local government web resources and services.